CAPE
1299 1395 1278 1258 1186 1271 1459 1552 1477 1260 1298 1536 1586 1710 1816 1828 1839 1791 1837 1922 1957 2165 2147 2088 1977 2256 2209 2144 1320 1591 2096 2137 1828 2185 2614 2736 2470 2417 2486 2913 3980 3996 3592 2862 2340 1931 1860 2248 2800 2507 2728 2432 2042 1745 1424 1492 1281 1660 2019 1950 1754 1921 2068 3272 3408 2943 3384 3319 1905 1476 1790 1074 2552 2428 2032 2190 2056 1809 1843 2297 3602 3256 2366 2626 2822
1443 1373 1122 1102 1139 1141 1214 1232 1409 1313 1176 1139 1427 1506 1652 1902 1980 2003 1893 1928 1916 1948 2461 2244 1995 2103 2384 2282 2238 1760 2244 2192 2076 1981 2609 2998 2930 2276 2026 2363 2810 2782 2649 2498 2719 2328 1956 2271 2553 2716 2462 2200 2113 2020 1996 1679 1076 987 1173 1355 1559 1739 1800 1961 2335 3212 2322 2895 2631 1664 2260 1317 2657 3072 2619 1667 2500 2136 2110 2422 1508 2320 1656 2675 3414
1113 1656 1664 1344 1365 1108 1251 1276 1336 1202 1095 908 832 1254 1498 1748 1936 2054 1941 1951 2053 1978 2094 2260 2216 2309 2309 2215 2299 2310 2517 2579 2440 2146 1989 2219 2691 2348 1838 2029 2329 2455 2656 2833 2316 2135 2070 2163 1974 2137 1970 1778 1597 1752 2079 1804 1427 1265 1173 1304 1549 1758 2739 2962 3417 2786 2312 2416 2782 1616 2297 2643 1913 2848 2169 1761 2205 1337 1279 1045 1170 449 419 1728 2985
1244 1396 1733 1780 1581 1615 1564 1406 1235 1096 1023 848 572 1149 1180 1412 1806 1920 1890 1740 1780 2012 2030 2151 2101 2531 2654 2327 2364 2455 2490 2522 2664 2403 1931 1984 2134 2639 2417 2093 2300 2567 2728 2672 2753 2894 2762 2736 2378 2050 2127 2028 1955 1906 1581 986 1256 1124 1122 2120 2175 2190 2936 3520 3077 3526 2975 3132 2793 3234 3456 2163 2722 1658 1535 1791 1044 2242 1971 1006 500 364 157 632 2668
1553 1482 1878 2050 1927 1106 1184 1504 1258 1199 1254 785 881 943 1032 1274 1563 1677 1716 1685 1615 1588 1848 2071 1877 2335 2408 2590 2610 2700 2794 2613 2558 1970 1877 1847 1948 2192 2164 2069 2092 2128 2336 2530 2676 2756 2868 2855 2792 2488 2451 2274 2007 1721 1321 1797 1888 1868 1328 1607 1958 1958 2152 2500 2573 2639 3610 3482 3149 3232 2348 2617 2750 2593 1747 975 1063 1052 1784 1558 876 348 808 461 2352
2169 2382 2120 1958 2674 2130 1446 1333 1173 902 889 785 954 815 925 1286 1322 1462 1751 1868 1799 1492 1452 1653 1779 2072 2394 2476 2551 2658 2752 2614 2498 2609 2124 1945 1981 2265 2362 2402 2542 2743 2655 2482 2624 2778 2645 2742 2302 2148 2346 1913 1782 2103 2372 2854 2863 2384 2237 2184 2443 2441 3060 3068 2645 2896 3250 3482 2139 1916 2539 1972 2429 2270 1637 1940 812 152 135 455 1125 1840 2023 1602 1653
3078 2692 2497 2309 2563 2812 2312 1926 3024 1867 1293 1502 1331 754 1026 1142 892 972 1488 1735 1734 1563 1335 1371 1439 1846 2165 2479 2484 2502 2578 2642 2721 2794 2716 2319 2057 2143 2186 2208 2378 2414 2403 2316 2288 2254 2262 2263 2338 2564 2616 2819 2038 2703 3396 3114 2401 2419 2810 3219 2988 2930 2357 2606 2284 2847 2943 2750 2362 1850 2080 2389 1902 2628 2842 2271 2288 1082 222 209 561 2308 2666 1944 2520
3406 3079 2647 2331 2708 3324 2814 2659 3324 2578 2608 2193 1599 1139 1677 1323 902 1168 1377 1490 1603 1616 1570 1349 1515 1868 2040 2297 2578 2414 2402 2527 2989 3267 2856 2781 2424 2178 2178 2088 2068 2082 1951 1736 2058 1982 2323 2609 2324 2165 2274 2997 2868 2889 3215 3399 2918 2641 2694 2372 2813 2986 2795 2879 2937 2895 2626 2341 2541 2754 2558 2682 2481 2556 2790 2047 1687 1438 806 609 1034 1898 3249 4116 2242
3563 3417 3177 2825 2792 3551 3859 3994 3792 3512 2848 2651 2527 2118 1866 1196 709 679 1257 998 1460 1575 1645 1544 1483 1449 1725 2100 2265 2216 1946 1978 2239 2603 3450 2958 2789 2332 1956 2063 2199 2405 2473 2412 2328 2686 2669 1994 1522 1653 2121 2191 3592 2940 2601 3027 2958 3278 3279 2925 2659 3311 3387 3186 3400 3429 2982 2903 2955 2421 2648 2241 2670 3128 2678 1908 1466 1283 1295 1475 1646 2808 2372 3164 3607
3858 3705 3327 3116 3134 3552 3999 4048 4186 3908 3354 3228 3114 3086 2632 2339 1486 1574 981 1599 1233 1772 1197 1369 1220 1276 1326 1905 1889 1967 1829 1697 1925 1646 2015 2550 2970 2379 1955 1770 2706 2986 2692 2287 2743 2588 2280 2148 2176 2221 2825 3055 3572 3806 3263 3450 3861 3398 2772 3090 4010 3970 3840 3759 3777 3316 3781 3541 3268 2976 2489 2552 2308 2620 2262 1826 1122 880 985 1430 1462 1803 2744 2050 3264
3889 3803 3471 3149 2959 3459 4186 3895 3746 3513 3328 2970 2712 2785 2709 2133 1885 1225 1104 968 1261 1817 1936 1985 1571 1305 941 1321 1650 1692 1741 1665 1193 1334 1420 1620 2577 2684 3105 3365 3341 3023 2412 2317 2921 2614 2567 2387 2504 2314 2849 2912 2584 2909 3076 2285 2151 2523 2899 3412 3068 3662 3553 3438 3258 3338 3426 3336 3286 3424 2914 2626 1951 1113 1343 863 488 416 454 1537 1888 2358 2226 2401 2719
2399 2359 2300 2344 2476 3398 3998 3514 3497 3404 2904 2787 2742 2569 2253 2240 2123 1687 1509 1170 1093 1183 1292 1299 1855 1459 1199 1262 1189 935 1033 1033 1087 1119 1180 1495 2205 2684 2922 3050 3014 3156 2648 2745 2745 2814 2763 2740 2711 2954 3152 2604 2192 2270 1989 1884 1862 1920 1981 2092 2712 2947 2896 3331 3473 3395 3720 2772 2994 2872 2444 2260 2245 1687 820 417 382 561 1453 2065 3194 1854 1754 2002 2169
2392 2364 2440 2532 2399 2645 3331 3462 3280 2959 2859 2901 2604 2308 2073 1861 1896 1848 1266 1032 1357 1260 971 904 1202 1475 2054 2001 874 1039 1092 960 1000 1235 1091 1339 1799 2696 2295 2528 2228 2021 1712 2356 2599 2735 3059 3148 2945 3424 3431 2476 3050 2020 1906 2113 1602 1593 2038 2372 2562 2966 2604 2112 2283 3258 2927 3277 2693 2300 2825 2499 2356 1845 883 674 3430 2891 2735 3112 3068 2104 1889 1876 1597
1838 2068 2140 1858 1925 3210 3322 3047 2941 2714 2528 2678 2611 2059 1803 1671 1494 1296 1148 1260 1181 1087 1128 1287 1506 1180 1474 1421 1032 1023 843 846 835 926 1124 1378 1617 1785 1596 1621 1490 1673 1982 2187 2679 2840 3187 3380 3427 3814 3355 2983 2544 2550 1982 1626 1585 1824 2495 2953 3245 3445 3206 1775 1489 1486 2536 2832 2742 2724 2551 2621 2507 2931 2665 2409 3243 3307 2846 2131 2555 1729 2213 2496 2379
1947 2197 2210 2085 1642 2255 3658 2739 2841 2444 2411 2826 2388 1869 1892 1671 1330 1301 1363 1351 985 884 880 1097 1263 1382 1353 1209 1493 1087 994 1073 1331 1236 1180 1446 1665 1499 1718 1786 1613 1768 2307 2517 2996 3081 3347 3743 3742 3446 3408 2754 2663 2375 1635 1347 1872 2207 2132 2476 2498 3274 3586 3898 3086 2149 2099 2269 2338 2788 2721 2689 2924 2809 2618 2376 2932 2956 2640 3669 2515 1764 2049 2396 2293
1873 1992 2558 1842 1688 1250 1940 1847 1601 2140 2336 2125 1844 1932 1716 1304 1226 1272 1171 1110 1029 840 1177 1527 1488 1336 1608 1562 1151 1108 1092 844 1066 1266 1289 1509 1555 1394 1644 2022 2297 2168 2880 3246 2795 3542 3752 3926 3618 3290 2638 2141 1738 1735 2107 2069 1750 1704 1709 1885 2445 2462 2315 2871 2986 3123 2842 3436 2808 2924 3054 2678 2310 3414 3179 2760 3292 3567 3564 3293 2982 2702 2217 2209 1946
2431 2492 2433 2512 2435 1441 1846 1327 1282 1612 2592 2383 2249 1906 1381 1196 873 942 1353 1381 1525 1728 2179 1500 1304 1206 1238 1499 1378 942 798 631 603 702 1232 1582 1646 1425 1271 1062 1299 1628 3080 2798 2775 3614 3832 3318 2916 2627 2155 1900 1632 1421 1646 1900 1804 1805 1761 1770 1785 2305 2026 2415 2066 2719 2801 2597 2716 2831 2436 2222 2054 1787 1916 2067 2164 2329 3242 3185 2733 1972 1715 1648 1471
1233 1136 1176 1101 2107 1976 1857 1984 2076 1389 1155 1074 1814 1758 1461 1345 1013 1013 1320 1380 1595 1658 1629 1157 1150 1206 1632 1446 1093 940 937 796 647 575 791 1015 950 571 1044 1240 1577 1268 2178 1509 2074 2340 2481 1761 2157 1848 1938 1592 1370 1284 1593 1927 1928 1790 1710 1717 1408 1523 1653 1932 2559 2914 2460 2470 2348 2370 2316 2274 2148 1870 1786 1648 1262 1401 2270 2096 1163 1275 2227 1557 1216
970 805 757 730 786 1041 1104 930 776 651 819 1461 1846 1592 1328 1594 1291 1372 1187 1112 1119 1162 1235 1087 1137 1132 1036 956 876 773 630 564 550 537 476 388 284 285 485 1160 1474 1622 1019 1181 1116 1494 1424 1467 1481 1426 1590 1584 1503 1403 1382 1543 1710 1767 1462 1417 1746 1438 1315 1880 3255 2905 2129 1605 1682 1294 1232 1137 1180 1255 1242 1070 797 861 1061 1647 1566 2006 2390 2065 972
735 693 622 611 544 523 506 450 413 611 495 658 650 597 788 791 704 838 986 906 757 876 738 854 910 890 824 784 692 626 565 492 429 382 404 439 504 601 618 406 833 1111 1347 1229 1614 1376 914 1134 1133 853 1437 1250 1158 1089 942 755 642 610 996 1645 1072 1300 1597 1676 1737 2071 2688 1820 1595 1535 1667 1866 1595 1276 1462 1406 1019 1033 626 788 788 972 1620 1789 1130
405 359 310 269 3 334 365 325 283 330 345 346 312 183 102 418 434 303 496 613 642 662 599 632 614 642 649 603 556 534 499 479 468 596 708 658 492 406 339 570 756 717 1051 1213 1255 1619 925 813 859 884 926 1022 1005 930 835 707 544 508 581 779 802 990 1038 1349 1567 1364 1987 1831 1600 1601 1628 1639 1626 1824 2000 1809 1768 1213 985 814 1281 1648 1620 1423 1314
142 164 194 173 151 156 129 201 188 185 188 172 131 204 420 470 332 292 357 455 424 366 332 518 542 480 498 482 452 467 470 458 450 392 305 262 257 239 267 314 448 548 592 948 909 944 1363 731 624 941 980 1001 936 848 596 425 354 315 330 396 482 497 645 880 1053 1116 1806 1494 1460 1278 1102 1537 1655 1848 1848 1685 1359 1198 871 877 665 640 665 504 509
35 0 0 0 1 56 72 148 78 146 22 88 65 188 223 306 332 291 346 413 415 386 434 473 494 486 493 474 416 376 374 368 351 366 378 361 338 357 370 396 371 320 284 305 355 444 466 563 670 684 652 527 389 317 265 236 210 194 165 201 241 288 319 358 809 1113 1476 1385 1049 812 921 1093 954 1160 1140 962 1033 798 314 414 510 310 261 186 80
0 0 0 0 0 0 0 0 7 11 10 5 31 196 209 95 221 220 273 279 273 306 332 348 409 389 334 334 344 371 377 363 347 323 272 241 248 246 249 262 234 203 208 209 243 228 200 182 128 124 144 224 216 199 186 155 136 120 104 128 170 225 243 258 395 969 538 670 422 386 277 238 271 270 351 487 473 339 296 219 149 181 227 189 98
0 0 0 0 0 0 0 0 0 2 6 6 6 7 45 106 103 110 120 144 221 261 310 306 337 318 340 329 331 320 284 228 166 185 197 166 178 191 204 205 225 239 244 263 235 220 193 180 158 158 131 116 141 132 118 111 101 90 83 78 30 52 154 197 224 257 352 344 300 199 224 217 292 223 242 248 252 242 275 204 154 140 155 76 69
0 0 0 0 0 0 0 0 0 0 0 0 0 4 5 20 43 57 66 101 99 55 98 126 125 155 178 201 216 229 204 151 116 116 112 114 111 145 195 227 250 263 265 256 255 237 204 142 120 96 86 84 86 90 87 50 88 80 25 0 1 3 27 35 143 204 204 192 191 290 193 232 262 284 275 226 180 168 174 171 184 206 121 30 48
0 0 0 0 0 1 4 0 0 0 0 0 0 0 0 0 2 15 21 26 35 47 36 30 58 87 98 56 71 81 84 75 64 69 76 77 96 112 130 166 185 203 193 152 82 44 48 46 41 53 66 69 68 76 73 70 18 20 16 1 5 7 5 11 11 50 3 117 95 87 78 51 93 173 241 328 254 199 150 156 171 152 3 11 22
0 0 0 0 0 0 0 0 0 0 0 0 0 0 0 0 0 0 0 0 2 0 0 0 0 0 8 0 1 4 22 20 29 46 58 65 75 66 76 88 84 52 35 70 42 27 31 31 0 0 41 65 68 65 59 21 7 50 61 62 65 2 0 0 0 0 0 4 8 8 11 12 14 20 126 196 158 77 87 94 107 85 57 33 27
0 0 0 0 0 0 0 0 0 0 0 0 0 0 0 0 0 0 0 0 0 0 0 0 0 0 0 0 0 0 0 0 0 0 5 20 38 46 26 5 0 7 28 20 9 2 32 94 59 23 64 81 47 42 20 24 9 0 4 0 6 13 12 1 4 0 15 29 20 26 32 35 16 25 32 102 82 62 24 51 66 62 54 38 41
0 0 0 0 0 0 0 0 0 0 0 0 0 0 0 0 0 0 0 0 0 0 0 0 0 0 0 0 0 0 0 0 0 0 5 3 0 0 0 0 0 0 0 0 0 0 85 67 40 14 1 3 11 18 11 10 12 7 4 0 2 1 0 5 15 2 12 12 11 31 46 32 19 22 76 37 22 41 26 43 38 26 27 20 0
0 0 0 0 0 0 0 0 0 0 0 0 0 0 0 0 0 0 0 0 0 0 0 0 0 0 0 0 0 0 0 0 0 0 0 0 0 0 0 0 0 0 0 0 1 298 0 3 0 0 0 2 2 3 16 10 9 8 0 2 4 5 2 0 0 1 1 0 1 3 3 0 0 0 73 83 86 63 31 1 3 13 20 0 1
0 0 0 0 0 0 0 0 0 0 0 0 0 0 0 0 0 0 0 0 0 0 0 0 0 0 0 0 0 0 0 0 0 0 0 0 0 0 0 0 0 0 0 0 2 39 0 0 0 0 0 4 7 6 4 10 8 8 6 0 0 0 0 0 0 0 1 1 0 1 1 0 0 0 2 8 17 39 21 12 10 18 13 12 0
0 0 0 0 0 0 0 0 0 0 0 0 0 0 0 0 0 0 0 0 0 0 0 0 0 0 0 0 0 0 0 0 0 0 0 0 0 0 0 0 0 0 0 81 0 0 0 0 0 0 1 2 3 6 5 3 4 2 0 0 0 0 0 0 0 0 0 0 0 1 0 2 2 0 0 1 4 30 50 20 7 26 28 18 4
0 0 0 0 0 0 0 0 0 0 0 0 0 0 0 0 0 0 0 0 0 0 0 0 0 0 0 0 0 0 0 0 0 0 0 0 0 0 0 0 0 0 0 222 62 0 0 0 0 0 0 2 5 1 0 2 1 3 2 0 1 0 0 0 0 0 0 0 1 1 1 1 3 2 1 0 2 7 23 33 20 7 10 8 2
1 0 0 0 1 6 0 2 0 4 0 18 0 0 0 0 0 0 0 0 0 0 0 0 0 0 0 0 0 0 0 0 0 0 0 0 0 0 0 209 288 0 0 0 0 0 0 0 0 0 4 1 1 1 1 0 0 1 0 0 0 0 0 0 0 0 0 0 0 0 0 2 3 2 5 14 16 26 24 34 31 30 24 15 16
10 4 8 0 0 0 1 2 25 38 1 0 0 0 0 0 3 3 0 0 1 0 0 0 0 0 0 0 0 0 0 0 0 0 0 0 0 0 225 0 0 0 0 0 0 0 0 0 4 0 1 3 4 2 1 3 0 0 0 0 0 0 0 0 0 1 1 0 0 0 0 0 0 0 0 0 0 0 0 1 1 1 1 0 0
2 1 12 6 8 6 0 1 0 0 0 0 0 10 4 0 0 5 7 10 8 8 1 0 0 0 0 0 0 0 0 0 0 0 0 0 0 123 0 0 0 0 0 0 0 0 0 0 0 4 0 2 4 0 2 2 0 0 0 0 0 0 0 0 0 0 1 2 0 0 0 0 0 0 0 0 0 0 0 0 0 1 0 0 0
1 1 0 0 12 4 57 74 6 0 6 1 16 1 3 19 16 16 12 18 8 6 19 12 0 10 9 0 0 0 0 0 0 0 0 0 162 0 0 0 0 0 0 0 0 0 0 0 2 2 0 0 0 0 0 1 0 0 0 3 6 1 0 0 0 0 0 0 0 0 0 0 0 0 0 0 0 0 0 0 0 0 0 0 0
34 76 0 0 0 0 6 6 57 36 13 8 4 9 4 4 16 22 15 18 6 3 10 16 5 18 15 1 0 0 0 0 3 2 2 2 0 0 0 0 0 0 0 0 0 0 0 0 0 0 0 0 0 0 0 0 0 0 0 0 0 0 0 0 0 1 0 0 0 0 0 0 0 0 0 0 0 0 0 0 0 0 0 0 0
0 189 39 0 0 0 1 2 1 2 12 10 5 13 4 12 11 22 21 25 30 32 24 11 14 16 16 0 1 0 6 38 13 14 10 13 10 6 4 1 0 0 0 0 0 0 0 0 0 0 0 0 0 0 0 0 0 0 0 0 0 0 0 0 0 0 0 0 0 0 0 0 0 0 0 0 0 0 0 0 0 0 0 0 0
0 0 0 0 0 0 0 0 6 21 28 16 10 19 16 20 19 13 6 16 16 18 15 10 16 12 25 5 0 0 0 24 10 13 1 4 7 10 9 8 6 3 0 0 0 0 0 0 0 0 0 0 0 0 0 0 0 0 0 0 0 0 0 0 0 0 0 0 0 0 0 0 0 0 0 0 0 0 0 0 0 0 0 0 0
0 0 0 0 0 0 0 0 3 6 3 1 3 3 1 5 17 24 14 21 19 10 8 4 11 38 0 0 0 0 0 2 20 21 6 10 3 4 0 5 10 9 4 3 1 0 0 0 0 0 0 0 0 0 0 0 0 0 0 0 0 0 0 0 0 0 0 0 0 0 0 0 0 0 0 0 0 0 0 0 0 0 0 0 0
0 0 0 0 0 0 0 0 0 0 0 4 8 19 18 6 6 10 2 9 6 0 6 3 3 43 10 0 0 0 0 1 24 6 11 13 4 1 4 1 4 9 5 4 1 0 0 0 0 0 0 0 0 0 0 0 0 0 0 0 0 0 0 0 0 0 0 0 0 0 0 0 0 0 0 0 0 0 0 0 0 0 0 0 0
0 0 0 0 0 0 0 0 0 0 0 0 0 0 0 0 0 0 7 10 4 3 1 0 1 2 5 1 0 0 0 10 8 6 4 5 9 4 2 1 1 3 3 2 0 0 0 0 0 0 0 1 2 1 0 0 0 0 0 0 0 0 0 0 0 0 0 0 0 0 0 0 0 0 0 0 0 0 0 0 1 0 0 0 0
0 0 0 0 0 0 0 0 0 2 0 0 0 2 0 1 2 2 5 3 4 6 5 3 0 3 7 17 14 10 24 17 13 4 18 10 5 4 3 0 1 0 1 0 3 4 2 2 1 0 5 2 0 0 1 0 0 0 0 0 0 0 2 1 0 0 0 0 0 0 0 0 0 1 1 1 0 0 0 4 5 1 0 3 5
0 0 0 0 0 0 0 0 0 0 0 0 0 0 1 1 6 6 6 6 6 1 3 2 0 4 17 19 29 12 61 10 9 26 22 12 8 0 0 0 0 2 1 0 4 3 0 1 1 0 0 0 0 0 0 0 3 0 1 2 0 0 0 0 0 0 1 2 1 1 1 2 1 3 0 0 1 1 1 3 3 4 4 4 1
0 0 0 0 0 0 0 0 0 0 0 0 0 0 0 0 2 2 3 4 0 0 0 0 0 12 68 146 170 171 129 80 105 46 42 21 34 14 0 0 0 2 0 0 0 1 5 2 1 4 3 2 1 0 0 0 0 0 1 1 0 0 0 0 4 4 1 2 6 4 4 3 4 3 1 3 3 4 5 4 3 4 0 3 5
0 0 0 0 0 0 0 0 0 0 0 0 0 0 0 0 0 0 2 0 0 0 9 15 67 80 94 106 186 164 134 118 91 88 38 33 16 6 1 1 0 2 0 0 2 1 0 0 2 5 4 5 4 2 3 0 2 0 0 0 0 0 0 0 10 2 1 4 10 7 6 0 3 3 3 3 2 1 1 2 2 3 4 2 4
0 0 0 0 0 0 0 0 0 0 0 0 0 0 0 0 3 7 8 6 4 8 24 66 136 144 142 271 178 132 53 14 50 112 48 2 7 15 0 0 0 1 1 1 3 2 3 3 3 1 1 4 1 2 0 1 3 0 0 0 0 0 0 0 0 0 1 1 4 2 0 5 1 8 5 1 0 3 0 0 0 0 8 0 6
0 1 1 4 4 2 1 2 8 8 9 6 5 5 7 6 7 7 3 13 24 40 54 102 133 168 137 195 279 309 191 126 70 98 49 1 0 0 0 0 1 0 0 0 0 2 1 2 1 4 3 5 2 5 2 0 0 0 0 0 0 0 0 0 0 0 0 0 0 9 1 0 3 4 6 2 2 3 7 1 0 1 1 1 1
2 2 7 4 2 7 12 10 4 9 13 4 9 5 2 1 0 0 2 11 24 34 35 74 90 118 116 126 53 134 110 122 65 33 10 0 0 0 0 0 0 0 0 0 0 0 1 0 0 0 2 1 2 1 1 0 0 0 0 1 0 0 0 0 0 0 0 0 0 2 11 1 0 0 0 0 0 0 7 0 2 5 2 0 0
Wind_Speed
16 15 14 13 12 12 12 11 9 8 6 7 6 6 7 6 6 5 6 5 5 6 5 4 4 5 4 5 3 4 5 4 5 5 5 3 1 1 1 2 3 4 4 2 3 3 2 2 1 0 1 2 2 4 4 2 3 4 3 3 3 3 2 3 1 0 1 0 3 2 4 1 7 3 3 6 4 6 6 6 13 12 10 11 13
17 17 15 14 12 12 11 12 10 9 8 7 8 7 7 8 7 7 6 7 6 6 6 6 5 5 4 4 4 4 6 5 4 5 6 6 3 3 4 3 3 3 1 1 4 3 3 5 4 4 4 4 1 2 2 3 4 4 2 0 1 2 2 0 2 3 2 3 4 4 8 1 6 4 5 6 12 7 12 9 7 12 10 15 14
18 19 17 15 13 12 11 12 12 10 9 8 8 8 9 8 9 8 8 8 9 7 7 6 5 5 5 4 5 4 5 6 5 4 5 6 4 3 2 5 5 4 4 4 3 3 3 3 5 5 3 2 2 1 0 1 1 4 1 1 4 7 6 8 6 4 5 6 4 2 7 6 4 6 4 4 5 5 4 6 6 5 7 16 15
19 17 18 16 16 15 12 11 12 11 10 10 9 10 10 10 10 9 8 9 9 11 8 7 7 7 6 5 5 5 5 5 5 4 4 4 5 5 3 3 4 4 5 4 3 4 3 3 3 3 2 2 2 1 1 2 2 3 3 4 5 5 9 9 9 6 5 6 8 5 6 11 3 6 6 7 4 6 5 4 4 5 5 11 16
19 19 17 16 17 15 11 11 13 11 10 11 11 11 12 11 12 11 10 10 10 10 13 9 8 8 8 7 6 6 5 5 5 4 4 5 6 5 5 4 5 4 5 5 5 5 4 3 3 4 4 4 4 3 2 3 6 6 4 4 7 9 12 10 11 7 7 6 8 8 10 10 8 9 9 7 9 9 10 8 6 6 8 8 16
21 20 19 17 21 15 14 14 13 13 17 13 12 13 14 14 13 13 13 11 12 11 12 13 12 10 10 8 7 7 6 6 5 5 5 5 6 6 6 6 6 7 7 7 7 6 6 6 6 6 8 4 8 7 7 4 5 4 9 9 10 10 11 12 10 8 8 10 12 9 10 11 11 10 12 10 9 8 8 10 11 11 11 9 15
21 20 20 20 21 18 17 19 24 23 20 22 20 17 14 15 15 13 14 14 13 13 12 14 15 13 12 11 9 8 8 7 8 8 8 6 7 7 7 7 8 8 7 8 8 8 7 7 9 14 10 14 12 8 9 10 11 13 13 11 13 13 9 13 12 11 11 12 14 13 12 12 15 13 11 12 9 8 8 9 10 16 12 12 12
22 21 20 20 20 21 18 20 24 23 25 24 21 19 20 20 19 16 15 16 15 14 15 15 17 15 14 13 12 11 10 9 10 11 9 9 9 9 9 9 9 8 8 9 10 10 9 9 10 12 14 14 11 11 11 13 15 14 15 15 16 14 11 13 13 12 12 13 14 15 14 15 14 12 13 14 12 10 11 11 13 12 15 14 13
21 20 20 19 19 20 22 24 27 26 25 23 21 22 22 25 27 29 24 15 19 17 17 17 16 17 16 16 14 14 13 12 13 14 15 11 10 12 12 11 11 10 10 12 13 13 13 11 11 12 18 12 13 13 14 16 14 14 14 15 13 15 15 15 15 14 13 13 14 16 16 16 16 15 14 14 14 13 13 12 14 15 14 14 15
20 18 17 17 18 18 20 23 27 27 27 25 25 26 26 26 26 27 28 25 18 21 18 18 18 17 18 21 17 15 16 18 34 35 25 15 16 14 13 14 14 15 15 14 14 14 13 14 14 17 19 16 15 14 14 12 11 11 13 14 16 17 17 15 14 14 15 14 15 16 15 15 16 17 14 13 13 13 12 14 14 15 15 13 15
20 19 17 17 17 17 20 22 24 25 26 26 27 27 29 28 27 27 26 28 25 25 19 19 20 19 18 18 19 20 20 34 37 32 25 17 16 16 17 19 20 18 14 15 17 16 16 17 17 18 20 19 18 18 17 14 11 12 14 16 15 17 16 16 15 16 16 16 17 17 15 14 13 15 17 14 13 14 15 15 14 16 16 15 13
21 20 19 18 18 18 21 22 23 24 24 24 25 27 29 30 29 28 28 29 29 29 25 20 19 20 19 18 19 26 37 34 36 24 22 20 15 17 19 19 21 20 17 17 19 19 18 19 20 21 23 23 21 23 23 20 15 11 10 12 14 14 12 14 16 17 18 18 19 18 17 16 15 16 16 15 15 15 17 19 16 16 16 16 14
23 23 22 22 21 22 25 26 25 25 24 24 26 28 28 29 30 30 31 31 32 30 30 25 24 22 21 24 36 39 34 39 25 21 18 20 17 17 18 20 21 19 17 21 22 22 23 23 23 25 26 25 25 24 23 22 19 14 11 12 11 13 13 12 14 16 19 19 18 17 17 16 16 17 17 18 20 18 21 21 20 18 14 15 13
22 22 24 24 24 26 29 28 28 28 27 26 27 26 28 28 29 32 34 35 36 36 32 28 26 29 25 31 37 33 35 39 39 35 31 24 21 21 17 18 18 21 22 23 23 24 24 25 27 28 28 29 27 27 26 23 21 20 18 20 20 14 15 15 15 16 19 20 20 19 18 19 17 18 19 19 20 19 20 23 26 20 16 17 16
22 21 21 22 22 22 27 27 26 27 28 31 31 29 29 29 29 32 35 36 36 37 37 36 34 32 32 33 33 31 36 41 39 39 39 36 32 26 20 20 20 22 22 23 22 23 26 27 28 29 31 30 28 26 24 23 25 26 24 24 21 20 19 18 19 20 22 22 21 20 21 22 20 19 19 19 20 21 20 24 27 22 18 18 17
14 14 16 17 18 18 19 24 19 19 24 28 30 32 33 32 32 36 38 38 39 40 40 37 36 36 38 38 36 33 40 43 41 41 41 38 34 26 21 19 21 24 23 28 26 26 28 29 30 31 32 30 27 25 26 29 30 27 25 23 21 21 20 20 18 20 22 24 24 23 26 30 29 25 27 25 24 24 24 24 25 22 19 19 18
9 10 12 15 15 13 16 17 14 14 20 24 26 28 32 35 36 37 37 39 41 42 43 45 43 40 39 39 40 39 43 46 44 42 43 41 34 28 24 24 23 22 27 30 27 28 31 31 33 32 31 29 32 32 30 27 24 20 20 18 19 24 24 23 26 29 30 32 33 34 34 31 32 31 30 32 31 28 25 23 22 22 21 19 21
20 19 18 16 14 15 16 16 16 17 14 15 19 22 26 30 33 36 36 36 40 43 50 49 48 44 41 42 41 43 47 50 49 45 43 43 37 33 29 27 26 26 26 27 29 31 30 33 32 34 32 34 37 35 39 34 26 20 19 18 18 20 20 23 27 31 33 33 30 29 30 30 29 27 27 28 30 28 25 23 23 23 28 30 27
26 26 25 24 22 21 22 21 20 16 14 14 14 15 20 26 30 34 33 34 38 46 49 49 50 48 46 46 46 46 48 51 52 49 48 49 45 38 33 30 28 28 29 29 31 29 33 41 44 41 38 40 41 42 40 36 30 27 24 25 23 17 18 20 25 30 33 30 30 30 29 28 27 27 27 28 28 27 26 25 24 26 28 31 32
27 27 29 29 28 29 26 25 26 23 19 21 21 21 24 33 37 37 33 33 38 41 47 51 54 53 52 52 52 51 50 50 52 53 50 50 48 41 35 30 31 31 33 35 32 30 32 35 38 41 40 39 41 40 38 38 35 32 31 30 28 24 26 26 22 24 29 28 27 30 30 30 29 29 28 31 31 36 30 32 29 24 29 32 34
28 29 30 31 nan 32 27 25 27 28 26 25 25 26 28 31 34 34 32 32 34 39 44 51 54 54 53 54 55 54 51 50 51 53 51 51 51 48 40 41 42 39 37 35 35 35 38 32 36 36 39 40 39 37 36 36 34 33 30 32 34 32 30 29 25 26 27 27 28 30 31 31 32 32 32 32 35 37 36 35 34 33 33 33 32
30 30 31 33 34 33 28 25 27 27 26 25 26 27 26 26 26 25 25 30 35 36 39 44 49 51 50 52 54 54 55 55 49 49 49 50 51 51 47 46 45 42 41 41 41 39 38 40 40 38 40 41 41 39 37 35 33 28 37 32 28 31 30 30 28 26 28 28 28 29 30 30 32 34 39 39 37 36 38 39 40 39 38 32 24
nan nan nan nan nan nan nan 36 nan 29 nan nan nan 25 25 25 24 25 26 29 31 33 34 38 43 46 47 48 50 52 51 52 53 49 49 49 50 50 49 47 46 47 46 46 47 47 46 44 44 45 42 45 44 43 41 37 32 40 35 32 33 30 29 29 29 29 29 30 31 31 31 31 33 35 37 36 37 37 39 42 43 42 42 35 nan
nan nan nan nan nan nan nan nan nan nan nan nan nan 32 31 nan 27 28 31 33 34 34 34 36 39 41 41 41 40 42 44 46 48 50 48 51 51 51 49 46 45 48 47 49 48 49 46 44 43 45 41 39 39 42 44 43 43 40 37 35 31 31 32 32 31 31 31 32 31 29 30 30 30 34 37 38 37 39 41 44 46 44 39 35 nan
nan nan nan nan nan nan nan nan nan nan nan nan nan nan nan 33 34 34 36 38 38 39 40 39 39 39 40 42 41 41 41 42 43 45 46 47 49 49 47 45 43 45 47 50 49 49 48 45 43 39 36 32 33 39 41 41 42 nan nan nan nan nan 35 33 33 31 30 30 28 28 27 29 31 35 40 42 41 42 43 43 43 40 35 nan nan
nan nan nan nan nan nan nan nan nan nan nan nan nan nan nan nan nan nan nan 38 nan nan nan 38 36 37 37 39 40 40 41 41 41 42 43 44 43 43 43 40 40 41 42 44 46 43 43 40 38 nan nan nan nan nan nan nan nan nan nan nan nan nan nan nan 32 31 31 31 30 30 31 34 36 36 37 37 38 39 39 37 34 31 29 nan nan
nan nan nan nan nan nan nan nan nan nan nan nan nan nan nan nan nan nan nan nan nan nan nan nan nan nan nan nan nan nan nan nan nan nan nan nan nan 40 40 39 40 39 38 40 nan nan nan nan nan nan nan nan nan nan nan nan nan nan nan nan nan nan nan nan nan nan nan 32 nan nan nan nan nan 37 36 36 35 32 33 33 31 30 nan nan nan
nan nan nan nan nan nan nan nan nan nan nan nan nan nan nan nan nan nan nan nan nan nan nan nan nan nan nan nan nan nan nan nan nan nan nan nan nan nan nan nan nan nan nan nan nan nan nan nan nan nan nan nan nan nan nan nan nan nan nan nan nan nan nan nan nan nan nan nan nan nan nan nan nan nan 37 38 36 nan nan nan 34 nan nan nan nan
nan nan nan nan nan nan nan nan nan nan nan nan nan nan nan nan nan nan nan nan nan nan nan nan nan nan nan nan nan nan nan nan nan nan nan nan nan nan nan nan nan nan nan nan nan nan nan nan nan nan nan nan nan nan nan nan nan nan nan nan nan nan nan nan nan nan nan nan nan nan nan nan nan nan nan 40 nan nan nan nan nan nan nan nan nan
nan nan nan nan nan nan nan nan nan nan nan nan nan nan nan nan nan nan nan nan nan nan nan nan nan nan nan nan nan nan nan nan nan nan nan nan nan nan nan nan nan nan nan nan nan nan nan nan nan nan nan nan nan nan nan nan nan nan nan nan nan nan nan nan nan nan nan nan nan nan nan nan nan nan nan nan nan nan nan nan nan nan nan nan nan
nan nan nan nan nan nan nan nan nan nan nan nan nan nan nan nan nan nan nan nan nan nan nan nan nan nan nan nan nan nan nan nan nan nan nan nan nan nan nan nan nan nan nan nan nan 23 nan nan nan nan nan nan nan nan nan nan nan nan nan nan nan nan nan nan nan nan nan nan nan nan nan nan nan nan nan nan nan nan nan nan nan nan nan nan nan
nan nan nan nan nan nan nan nan nan nan nan nan nan nan nan nan nan nan nan nan nan nan nan nan nan nan nan nan nan nan nan nan nan nan nan nan nan nan nan nan nan nan nan nan nan nan nan nan nan nan nan nan nan nan nan nan nan nan nan nan nan nan nan nan nan nan nan nan nan nan nan nan nan nan nan nan nan nan nan nan nan nan nan nan nan
nan nan nan nan nan nan nan nan nan nan nan nan nan nan nan nan nan nan nan nan nan nan nan nan nan nan nan nan nan nan nan nan nan nan nan nan nan nan nan nan nan nan nan nan nan nan nan nan nan nan nan nan nan nan nan nan nan nan nan nan nan nan nan nan nan nan nan nan nan nan nan nan nan nan nan nan nan nan nan nan nan nan nan nan nan
nan nan nan nan nan nan nan nan nan nan nan nan nan nan nan nan nan nan nan nan nan nan nan nan nan nan nan nan nan nan nan nan nan nan nan nan nan nan nan nan nan nan nan 43 nan nan nan nan nan nan nan nan nan nan nan nan nan nan nan nan nan nan nan nan nan nan nan nan nan nan nan nan nan nan nan nan nan nan nan nan nan nan nan nan nan
nan nan nan nan nan nan nan nan nan nan nan nan nan nan nan nan nan nan nan nan nan nan nan nan nan nan nan nan nan nan nan nan nan nan nan nan nan nan nan 35 41 nan nan nan nan nan nan nan nan nan nan nan nan nan nan nan nan nan nan nan nan nan nan nan nan nan nan nan nan nan nan nan nan nan nan nan nan nan nan nan nan nan nan nan nan
nan nan nan nan nan nan nan nan nan nan nan nan nan nan nan nan nan nan nan nan nan nan nan nan nan nan nan nan nan nan nan nan nan nan nan nan nan nan 42 nan nan nan nan nan nan nan nan nan nan nan nan nan nan nan nan nan nan nan nan nan nan nan nan nan nan nan nan nan nan nan nan nan nan nan nan nan nan nan nan nan nan nan nan nan nan
nan nan nan nan nan nan nan nan nan nan nan nan nan nan nan nan nan nan nan nan nan nan nan nan nan nan nan nan nan nan nan nan nan nan nan nan nan 38 nan nan nan nan nan nan nan nan nan nan nan nan nan nan nan nan nan nan nan nan nan nan nan nan nan nan nan nan nan nan nan nan nan nan nan nan nan nan nan nan nan nan nan nan nan nan nan
nan nan nan nan nan nan nan nan nan nan nan nan nan nan nan nan nan nan nan nan nan nan nan nan nan nan nan nan nan nan nan nan nan nan nan nan 40 nan nan nan nan nan nan nan nan nan nan nan nan nan nan nan nan nan nan nan nan nan nan nan nan nan nan nan nan nan nan nan nan nan nan nan nan nan nan nan nan nan nan nan nan nan nan nan nan
nan nan nan nan nan nan nan nan nan nan nan nan nan nan nan nan nan nan nan nan nan nan nan nan nan nan nan nan nan nan nan nan nan nan nan nan nan nan nan nan nan nan nan nan nan nan nan nan nan nan nan nan nan nan nan nan nan nan nan nan nan nan nan nan nan nan nan nan nan nan nan nan nan nan nan nan nan nan nan nan nan nan nan nan nan
nan 24 nan nan nan nan nan nan nan nan nan nan nan nan nan nan nan nan nan nan nan nan nan nan nan nan nan nan nan nan nan nan nan nan nan nan nan nan nan nan nan nan nan nan nan nan nan nan nan nan nan nan nan nan nan nan nan nan nan nan nan nan nan nan nan nan nan nan nan nan nan nan nan nan nan nan nan nan nan nan nan nan nan nan nan
nan nan nan nan nan nan nan nan nan nan nan nan nan nan nan nan nan nan nan nan nan nan nan nan nan nan nan nan nan nan nan nan nan nan nan nan nan nan nan nan nan nan nan nan nan nan nan nan nan nan nan nan nan nan nan nan nan nan nan nan nan nan nan nan nan nan nan nan nan nan nan nan nan nan nan nan nan nan nan nan nan nan nan nan nan
nan nan nan nan nan nan nan nan nan nan nan nan nan nan nan nan nan nan nan nan nan nan nan nan nan nan nan nan nan nan nan nan nan nan nan nan nan nan nan nan nan nan nan nan nan nan nan nan nan nan nan nan nan nan nan nan nan nan nan nan nan nan nan nan nan nan nan nan nan nan nan nan nan nan nan nan nan nan nan nan nan nan nan nan nan
nan nan nan nan nan nan nan nan nan nan nan nan nan nan nan nan nan nan nan nan nan nan nan nan nan nan nan nan nan nan nan nan nan nan nan nan nan nan nan nan nan nan nan nan nan nan nan nan nan nan nan nan nan nan nan nan nan nan nan nan nan nan nan nan nan nan nan nan nan nan nan nan nan nan nan nan nan nan nan nan nan nan nan nan nan
nan nan nan nan nan nan nan nan nan nan nan nan nan nan nan nan nan nan nan nan nan nan nan nan nan nan nan nan nan nan nan nan nan nan nan nan nan nan nan nan nan nan nan nan nan nan nan nan nan nan nan nan nan nan nan nan nan nan nan nan nan nan nan nan nan nan nan nan nan nan nan nan nan nan nan nan nan nan nan nan nan nan nan nan nan
nan nan nan nan nan nan nan nan nan nan nan nan nan nan nan nan nan nan nan nan nan nan nan nan nan nan nan nan nan nan nan nan nan nan nan nan nan nan nan nan nan nan nan nan nan nan nan nan nan nan nan nan nan nan nan nan nan nan nan nan nan nan nan nan nan nan nan nan nan nan nan nan nan nan nan nan nan nan nan nan nan nan nan nan nan
nan nan nan nan nan nan nan nan nan nan nan nan nan nan nan nan nan nan nan nan nan nan nan nan nan nan nan nan nan nan nan nan nan nan nan nan nan nan nan nan nan nan nan nan nan nan nan nan nan nan nan nan nan nan nan nan nan nan nan nan nan nan nan nan nan nan nan nan nan nan nan nan nan nan nan nan nan nan nan nan nan nan nan nan nan
nan nan nan nan nan nan nan nan nan nan nan nan nan nan nan nan nan nan nan nan nan nan nan nan nan nan nan 49 50 51 53 nan 55 nan nan nan nan nan nan nan nan nan nan nan nan nan nan nan nan nan nan nan nan nan nan nan nan nan nan nan nan nan nan nan nan nan nan nan nan nan nan nan nan nan nan nan nan nan nan nan nan nan nan nan nan
nan nan nan nan nan nan nan nan nan nan nan nan nan nan nan nan nan nan nan nan nan nan nan nan nan nan nan 50 54 56 55 53 nan nan nan nan nan nan nan nan nan nan nan nan nan nan nan nan nan nan nan nan nan nan nan nan nan nan nan nan nan nan nan nan nan nan nan nan nan nan nan nan nan nan nan nan nan nan nan nan nan nan nan nan nan
nan nan nan nan nan nan nan nan nan nan nan nan nan nan nan nan nan nan nan nan nan nan nan nan 48 49 52 57 55 58 nan nan nan 61 nan nan nan nan nan nan nan nan nan nan nan nan nan nan nan nan nan nan nan nan nan nan nan nan nan nan nan nan nan nan nan nan nan nan nan nan nan nan nan nan nan nan nan nan nan nan nan nan nan nan nan
nan nan nan nan nan nan nan nan nan nan nan nan nan nan nan nan nan nan nan nan nan nan nan 48 50 50 51 51 51 55 56 57 nan nan nan nan nan nan nan nan nan nan nan nan nan nan nan nan nan nan nan nan nan nan nan nan nan nan nan nan nan nan nan nan nan nan nan nan nan nan nan nan nan nan nan nan nan nan nan nan nan nan nan nan nan
nan nan nan nan nan nan nan nan nan nan nan nan nan nan nan nan nan nan nan nan nan nan nan nan nan 50 50 51 nan 49 50 50 nan nan nan nan nan nan nan nan nan nan nan nan nan nan nan nan nan nan nan nan nan nan nan nan nan nan nan nan nan nan nan nan nan nan nan nan nan nan nan nan nan nan nan nan nan nan nan nan nan nan nan nan nan
Wind_Direction
252 247 244 249 252 259 264 264 270 267 267 269 257 251 248 249 242 231 251 247 250 274 282 275 271 280 284 291 308 293 298 297 297 299 308 318 323 164 208 274 313 334 340 7 9 349 342 348 1 34 105 122 133 146 154 172 96 86 63 51 69 79 40 302 62 65 320 67 122 269 250 98 306 359 268 300 310 351 343 324 337 347 342 319 313
246 251 246 246 255 260 263 269 270 267 274 271 268 258 255 255 252 243 240 256 249 248 271 273 280 288 288 292 279 287 290 289 293 299 303 306 328 322 335 343 337 353 357 1 350 356 336 347 5 6 8 12 85 141 156 173 172 143 174 105 48 195 239 109 187 194 200 256 226 273 297 182 269 209 315 339 333 2 312 21 0 345 359 328 319
244 249 248 247 249 250 258 263 270 279 281 274 276 270 268 265 262 261 251 248 261 249 252 261 263 279 283 273 281 281 281 298 304 304 298 308 321 330 318 322 333 339 344 341 354 344 357 355 12 11 1 0 344 346 308 207 193 206 222 200 222 254 249 255 255 220 215 246 250 219 262 273 303 322 321 297 302 308 306 315 8 350 315 313 317
249 247 249 251 254 245 237 246 261 273 279 275 277 275 266 266 268 267 266 257 259 267 256 245 258 264 268 271 272 279 286 297 302 301 308 314 316 321 307 271 288 299 302 295 291 305 318 324 337 5 339 341 348 316 220 201 270 292 217 227 232 229 263 262 274 256 239 258 245 227 253 262 236 261 249 290 291 291 303 311 307 315 311 297 311
238 250 253 251 253 256 257 251 239 244 264 262 273 273 269 264 267 269 265 263 262 263 274 271 255 258 268 272 269 275 281 285 297 303 294 304 312 318 311 299 289 279 269 266 258 257 255 274 280 285 325 335 333 337 259 231 238 213 216 247 244 240 250 240 250 272 277 267 263 250 242 257 253 265 290 288 296 307 322 325 311 310 306 309 306
241 241 247 255 253 246 252 255 259 239 219 230 261 263 261 266 261 263 267 268 269 267 268 273 278 275 271 269 268 270 273 275 283 284 285 286 292 296 296 288 283 281 278 281 284 278 274 271 273 258 233 222 234 240 255 238 259 251 241 228 245 252 261 270 276 283 276 286 284 271 262 263 259 263 267 263 276 288 299 318 322 305 304 313 304
252 251 251 249 256 257 251 251 248 252 254 238 218 230 259 265 266 261 268 272 268 270 273 273 272 273 276 277 276 271 274 280 274 283 284 276 274 281 280 278 277 275 277 280 269 268 265 265 268 262 261 257 271 265 255 248 250 250 246 244 250 251 257 263 264 270 269 265 272 273 267 270 280 275 275 276 267 278 288 293 295 297 303 298 304
249 249 252 255 253 258 253 252 253 251 246 251 258 246 229 233 239 250 261 269 272 271 274 277 276 277 274 278 279 276 273 279 284 280 283 282 275 268 268 265 264 267 273 272 271 267 261 252 250 262 269 269 263 263 257 257 263 257 250 242 244 256 263 267 269 268 270 274 269 268 272 272 277 279 278 280 290 303 303 297 301 303 302 302 302
251 251 252 251 251 249 252 250 252 253 252 252 249 254 258 255 250 232 215 244 268 271 277 276 280 284 286 278 278 281 287 283 286 288 271 263 267 261 253 266 265 255 255 262 263 258 254 248 252 242 255 254 275 267 256 257 262 266 270 275 280 272 266 269 269 269 272 275 278 277 279 286 286 287 289 288 295 302 305 305 303 306 304 303 304
250 250 247 246 244 245 249 249 249 250 252 250 247 250 252 253 257 257 244 215 241 264 258 269 275 278 282 285 283 281 280 270 246 239 238 242 265 272 271 265 265 255 240 243 256 258 252 251 247 251 252 257 258 265 266 264 264 253 254 264 273 275 274 272 274 272 269 267 270 276 278 281 288 293 296 297 296 291 286 303 304 303 302 299 298
243 245 243 244 245 245 251 255 253 252 251 249 249 251 255 254 251 251 247 251 232 230 254 266 266 270 269 275 281 277 267 267 277 282 289 277 255 257 259 256 256 261 267 265 255 252 254 256 253 257 263 265 262 254 249 249 244 236 240 253 266 273 273 278 277 275 274 271 269 272 274 275 281 284 291 297 293 296 301 295 300 299 299 297 298
237 240 241 243 247 251 256 259 259 259 256 255 254 254 256 257 258 254 248 244 250 257 237 235 254 259 261 264 270 256 250 243 248 269 273 268 276 269 266 265 267 266 264 264 265 264 261 261 262 262 262 260 258 260 258 252 248 238 240 257 272 282 275 272 275 276 279 276 277 278 272 273 274 278 283 285 285 290 293 289 285 295 297 297 291
250 251 249 249 250 252 255 258 260 259 259 258 258 258 257 258 259 261 259 255 253 252 259 246 222 232 242 238 238 245 252 255 263 245 248 270 268 265 266 274 267 264 274 275 273 269 268 267 264 266 267 271 266 265 264 263 259 255 258 259 260 284 287 283 273 270 271 273 272 273 279 275 276 277 277 273 267 265 261 266 272 265 274 283 286
244 247 246 245 250 257 259 259 259 259 260 260 258 256 258 260 262 262 259 258 256 258 256 251 249 248 239 235 245 245 249 243 236 236 236 235 241 250 263 266 275 268 255 262 270 273 274 271 269 268 267 269 268 273 278 278 275 270 268 264 264 272 286 284 280 280 273 273 274 275 278 279 279 274 276 278 274 275 275 279 269 272 274 274 266
237 242 250 256 262 260 261 263 267 268 267 265 262 261 260 263 266 267 264 263 263 262 256 251 248 246 248 250 251 252 247 250 248 240 236 234 233 238 252 257 259 266 273 266 268 272 270 270 271 271 269 269 271 276 276 274 273 274 269 267 265 264 267 272 275 278 282 283 283 286 282 283 283 279 278 281 286 284 281 274 280 287 289 287 284
232 238 241 246 250 252 255 252 258 269 269 268 268 266 265 266 267 268 267 266 264 260 259 260 257 252 248 248 249 247 246 246 249 246 243 238 236 244 251 257 261 259 264 269 262 264 270 269 270 269 268 268 269 262 264 264 262 266 264 258 266 273 271 277 283 283 278 275 278 275 275 269 267 271 268 267 278 284 286 284 284 281 280 282 285
241 246 242 242 251 255 262 276 280 277 277 277 275 270 267 267 267 268 268 265 264 263 262 258 256 254 251 250 251 254 250 241 239 244 249 247 246 249 244 241 244 258 266 262 264 268 269 268 268 269 270 271 263 270 273 271 261 260 257 255 268 272 263 267 268 267 266 265 267 269 270 269 265 262 262 262 265 264 270 274 277 276 278 278 273
236 235 232 234 245 258 258 261 270 274 271 286 287 272 264 261 267 271 268 263 263 262 258 256 257 255 255 253 252 252 252 245 241 240 241 241 245 247 244 251 252 247 254 261 266 266 260 263 266 269 268 264 262 261 265 270 275 273 271 265 253 263 276 274 275 273 269 266 268 272 276 279 279 279 276 275 274 272 275 279 276 273 269 270 273
244 244 246 248 246 251 255 255 256 267 283 278 273 283 279 270 267 266 265 265 261 258 257 256 255 252 252 251 251 251 250 247 243 241 240 240 241 245 245 248 249 251 253 263 259 256 265 263 256 256 258 258 254 253 256 261 268 271 269 269 263 260 267 268 270 272 273 273 274 274 276 279 279 281 285 290 288 282 273 270 269 269 271 275 275
253 254 254 253 254 254 254 251 250 249 245 247 246 237 252 272 269 259 254 259 263 259 255 255 253 249 248 250 251 249 251 249 246 242 241 241 242 246 251 247 250 247 244 246 261 265 257 256 259 260 259 258 257 256 257 259 261 258 258 264 264 266 261 251 252 268 271 268 268 271 272 276 280 283 283 282 280 272 268 265 262 262 266 267 270
255 256 256 256 nan 252 246 246 250 249 250 249 244 242 250 262 268 267 263 266 267 260 255 253 251 249 249 251 251 247 247 251 250 246 242 240 239 240 245 244 244 247 247 247 249 252 258 263 260 257 259 258 258 256 252 252 255 258 260 260 256 253 253 256 257 268 268 266 270 272 274 277 278 277 278 275 272 274 274 274 275 272 271 272 275
260 256 257 259 254 242 237 252 260 255 252 252 251 253 256 265 272 269 265 265 263 261 262 259 255 252 251 251 253 254 250 248 249 250 246 242 242 241 244 245 243 247 249 247 245 249 253 257 259 262 264 263 259 257 253 251 253 258 260 261 256 253 255 256 261 266 269 268 268 270 272 277 281 280 270 267 267 266 264 266 266 264 268 265 272
nan nan nan nan nan nan nan 262 nan 264 nan nan nan 262 267 269 267 264 258 256 260 265 270 271 266 260 256 254 254 254 253 249 246 248 247 243 241 241 242 244 238 244 248 251 249 249 250 256 255 254 255 255 253 254 253 249 257 261 256 255 255 256 260 262 263 266 267 268 268 269 275 273 268 262 261 260 260 257 258 258 258 260 264 259 nan
nan nan nan nan nan nan nan nan nan nan nan nan nan 270 268 nan 263 258 256 260 266 268 269 271 272 268 260 257 256 255 254 251 248 245 245 240 240 239 238 241 244 247 247 252 251 250 251 252 253 251 252 254 258 258 259 256 258 256 256 257 260 266 270 269 270 270 269 267 270 273 275 273 273 271 268 265 262 260 259 259 258 257 258 263 nan
nan nan nan nan nan nan nan nan nan nan nan nan nan nan nan 268 269 268 267 265 264 264 263 266 270 269 264 261 259 257 252 248 246 245 243 241 240 237 237 238 240 243 247 252 252 251 252 255 256 257 261 267 268 267 264 265 264 nan nan nan nan nan 267 269 268 268 270 270 269 267 268 273 272 268 265 262 261 260 260 261 261 259 256 nan nan
nan nan nan nan nan nan nan nan nan nan nan nan nan nan nan nan nan nan nan 273 nan nan nan 267 269 269 266 262 259 258 256 252 247 247 247 245 243 239 236 238 241 242 246 250 254 258 260 263 267 nan nan nan nan nan nan nan nan nan nan nan nan nan nan nan 261 262 263 264 265 263 265 270 270 271 271 268 265 263 262 261 260 259 256 nan nan
nan nan nan nan nan nan nan nan nan nan nan nan nan nan nan nan nan nan nan nan nan nan nan nan nan nan nan nan nan nan nan nan nan nan nan nan nan 243 244 244 241 244 252 256 nan nan nan nan nan nan nan nan nan nan nan nan nan nan nan nan nan nan nan nan nan nan nan 260 nan nan nan nan nan 272 273 272 269 264 262 262 259 254 nan nan nan
nan nan nan nan nan nan nan nan nan nan nan nan nan nan nan nan nan nan nan nan nan nan nan nan nan nan nan nan nan nan nan nan nan nan nan nan nan nan nan nan nan nan nan nan nan nan nan nan nan nan nan nan nan nan nan nan nan nan nan nan nan nan nan nan nan nan nan nan nan nan nan nan nan nan 273 272 272 nan nan nan 263 nan nan nan nan
nan nan nan nan nan nan nan nan nan nan nan nan nan nan nan nan nan nan nan nan nan nan nan nan nan nan nan nan nan nan nan nan nan nan nan nan nan nan nan nan nan nan nan nan nan nan nan nan nan nan nan nan nan nan nan nan nan nan nan nan nan nan nan nan nan nan nan nan nan nan nan nan nan nan nan 268 nan nan nan nan nan nan nan nan nan
nan nan nan nan nan nan nan nan nan nan nan nan nan nan nan nan nan nan nan nan nan nan nan nan nan nan nan nan nan nan nan nan nan nan nan nan nan nan nan nan nan nan nan nan nan nan nan nan nan nan nan nan nan nan nan nan nan nan nan nan nan nan nan nan nan nan nan nan nan nan nan nan nan nan nan nan nan nan nan nan nan nan nan nan nan
nan nan nan nan nan nan nan nan nan nan nan nan nan nan nan nan nan nan nan nan nan nan nan nan nan nan nan nan nan nan nan nan nan nan nan nan nan nan nan nan nan nan nan nan nan 239 nan nan nan nan nan nan nan nan nan nan nan nan nan nan nan nan nan nan nan nan nan nan nan nan nan nan nan nan nan nan nan nan nan nan nan nan nan nan nan
nan nan nan nan nan nan nan nan nan nan nan nan nan nan nan nan nan nan nan nan nan nan nan nan nan nan nan nan nan nan nan nan nan nan nan nan nan nan nan nan nan nan nan nan nan nan nan nan nan nan nan nan nan nan nan nan nan nan nan nan nan nan nan nan nan nan nan nan nan nan nan nan nan nan nan nan nan nan nan nan nan nan nan nan nan
nan nan nan nan nan nan nan nan nan nan nan nan nan nan nan nan nan nan nan nan nan nan nan nan nan nan nan nan nan nan nan nan nan nan nan nan nan nan nan nan nan nan nan nan nan nan nan nan nan nan nan nan nan nan nan nan nan nan nan nan nan nan nan nan nan nan nan nan nan nan nan nan nan nan nan nan nan nan nan nan nan nan nan nan nan
nan nan nan nan nan nan nan nan nan nan nan nan nan nan nan nan nan nan nan nan nan nan nan nan nan nan nan nan nan nan nan nan nan nan nan nan nan nan nan nan nan nan nan 266 nan nan nan nan nan nan nan nan nan nan nan nan nan nan nan nan nan nan nan nan nan nan nan nan nan nan nan nan nan nan nan nan nan nan nan nan nan nan nan nan nan
nan nan nan nan nan nan nan nan nan nan nan nan nan nan nan nan nan nan nan nan nan nan nan nan nan nan nan nan nan nan nan nan nan nan nan nan nan nan nan 269 271 nan nan nan nan nan nan nan nan nan nan nan nan nan nan nan nan nan nan nan nan nan nan nan nan nan nan nan nan nan nan nan nan nan nan nan nan nan nan nan nan nan nan nan nan
nan nan nan nan nan nan nan nan nan nan nan nan nan nan nan nan nan nan nan nan nan nan nan nan nan nan nan nan nan nan nan nan nan nan nan nan nan nan 270 nan nan nan nan nan nan nan nan nan nan nan nan nan nan nan nan nan nan nan nan nan nan nan nan nan nan nan nan nan nan nan nan nan nan nan nan nan nan nan nan nan nan nan nan nan nan
nan nan nan nan nan nan nan nan nan nan nan nan nan nan nan nan nan nan nan nan nan nan nan nan nan nan nan nan nan nan nan nan nan nan nan nan nan 268 nan nan nan nan nan nan nan nan nan nan nan nan nan nan nan nan nan nan nan nan nan nan nan nan nan nan nan nan nan nan nan nan nan nan nan nan nan nan nan nan nan nan nan nan nan nan nan
nan nan nan nan nan nan nan nan nan nan nan nan nan nan nan nan nan nan nan nan nan nan nan nan nan nan nan nan nan nan nan nan nan nan nan nan 275 nan nan nan nan nan nan nan nan nan nan nan nan nan nan nan nan nan nan nan nan nan nan nan nan nan nan nan nan nan nan nan nan nan nan nan nan nan nan nan nan nan nan nan nan nan nan nan nan
nan nan nan nan nan nan nan nan nan nan nan nan nan nan nan nan nan nan nan nan nan nan nan nan nan nan nan nan nan nan nan nan nan nan nan nan nan nan nan nan nan nan nan nan nan nan nan nan nan nan nan nan nan nan nan nan nan nan nan nan nan nan nan nan nan nan nan nan nan nan nan nan nan nan nan nan nan nan nan nan nan nan nan nan nan
nan 297 nan nan nan nan nan nan nan nan nan nan nan nan nan nan nan nan nan nan nan nan nan nan nan nan nan nan nan nan nan nan nan nan nan nan nan nan nan nan nan nan nan nan nan nan nan nan nan nan nan nan nan nan nan nan nan nan nan nan nan nan nan nan nan nan nan nan nan nan nan nan nan nan nan nan nan nan nan nan nan nan nan nan nan
nan nan nan nan nan nan nan nan nan nan nan nan nan nan nan nan nan nan nan nan nan nan nan nan nan nan nan nan nan nan nan nan nan nan nan nan nan nan nan nan nan nan nan nan nan nan nan nan nan nan nan nan nan nan nan nan nan nan nan nan nan nan nan nan nan nan nan nan nan nan nan nan nan nan nan nan nan nan nan nan nan nan nan nan nan
nan nan nan nan nan nan nan nan nan nan nan nan nan nan nan nan nan nan nan nan nan nan nan nan nan nan nan nan nan nan nan nan nan nan nan nan nan nan nan nan nan nan nan nan nan nan nan nan nan nan nan nan nan nan nan nan nan nan nan nan nan nan nan nan nan nan nan nan nan nan nan nan nan nan nan nan nan nan nan nan nan nan nan nan nan
nan nan nan nan nan nan nan nan nan nan nan nan nan nan nan nan nan nan nan nan nan nan nan nan nan nan nan nan nan nan nan nan nan nan nan nan nan nan nan nan nan nan nan nan nan nan nan nan nan nan nan nan nan nan nan nan nan nan nan nan nan nan nan nan nan nan nan nan nan nan nan nan nan nan nan nan nan nan nan nan nan nan nan nan nan
nan nan nan nan nan nan nan nan nan nan nan nan nan nan nan nan nan nan nan nan nan nan nan nan nan nan nan nan nan nan nan nan nan nan nan nan nan nan nan nan nan nan nan nan nan nan nan nan nan nan nan nan nan nan nan nan nan nan nan nan nan nan nan nan nan nan nan nan nan nan nan nan nan nan nan nan nan nan nan nan nan nan nan nan nan
nan nan nan nan nan nan nan nan nan nan nan nan nan nan nan nan nan nan nan nan nan nan nan nan nan nan nan nan nan nan nan nan nan nan nan nan nan nan nan nan nan nan nan nan nan nan nan nan nan nan nan nan nan nan nan nan nan nan nan nan nan nan nan nan nan nan nan nan nan nan nan nan nan nan nan nan nan nan nan nan nan nan nan nan nan
nan nan nan nan nan nan nan nan nan nan nan nan nan nan nan nan nan nan nan nan nan nan nan nan nan nan nan nan nan nan nan nan nan nan nan nan nan nan nan nan nan nan nan nan nan nan nan nan nan nan nan nan nan nan nan nan nan nan nan nan nan nan nan nan nan nan nan nan nan nan nan nan nan nan nan nan nan nan nan nan nan nan nan nan nan
nan nan nan nan nan nan nan nan nan nan nan nan nan nan nan nan nan nan nan nan nan nan nan nan nan nan nan 283 284 285 284 nan 281 nan nan nan nan nan nan nan nan nan nan nan nan nan nan nan nan nan nan nan nan nan nan nan nan nan nan nan nan nan nan nan nan nan nan nan nan nan nan nan nan nan nan nan nan nan nan nan nan nan nan nan nan
nan nan nan nan nan nan nan nan nan nan nan nan nan nan nan nan nan nan nan nan nan nan nan nan nan nan nan 279 276 275 275 278 nan nan nan nan nan nan nan nan nan nan nan nan nan nan nan nan nan nan nan nan nan nan nan nan nan nan nan nan nan nan nan nan nan nan nan nan nan nan nan nan nan nan nan nan nan nan nan nan nan nan nan nan nan
nan nan nan nan nan nan nan nan nan nan nan nan nan nan nan nan nan nan nan nan nan nan nan nan 282 282 280 281 282 280 nan nan nan 278 nan nan nan nan nan nan nan nan nan nan nan nan nan nan nan nan nan nan nan nan nan nan nan nan nan nan nan nan nan nan nan nan nan nan nan nan nan nan nan nan nan nan nan nan nan nan nan nan nan nan nan
nan nan nan nan nan nan nan nan nan nan nan nan nan nan nan nan nan nan nan nan nan nan nan 282 282 280 280 280 278 278 278 279 nan nan nan nan nan nan nan nan nan nan nan nan nan nan nan nan nan nan nan nan nan nan nan nan nan nan nan nan nan nan nan nan nan nan nan nan nan nan nan nan nan nan nan nan nan nan nan nan nan nan nan nan nan
nan nan nan nan nan nan nan nan nan nan nan nan nan nan nan nan nan nan nan nan nan nan nan nan nan 279 279 279 nan 278 278 277 nan nan nan nan nan nan nan nan nan nan nan nan nan nan nan nan nan nan nan nan nan nan nan nan nan nan nan nan nan nan nan nan nan nan nan nan nan nan nan nan nan nan nan nan nan nan nan nan nan nan nan nan nan